Miscellaneous Local Product
Issued by NWS North Platte, NE

Home | Current Version | Previous Version | Graphics & Text | Print | Product List | Glossary On
Versions: 1 2 3 4 5 6 7 8 9 10 11 12 13 14 15 16 17 18 19 20 21 22 23 24 25 26 27 28 29 30 31 32 33 34 35 36 37 38 39 40 41 42 43 44 45 46 47 48 49 50
779
AXUS43 KLBF 302010
MISLBF


WESTERN AND NORTH CENTRAL NEBRASKA HOURLY WEATHER ROUNDUP
NATIONAL WEATHER SERVICE NORTH PLATTE NE
300 PM CDT SAT APR 30 2016

NOTE: "FAIR" INDICATES FEW OR NO CLOUDS BELOW 12,000 FEET WITH NO
SIGNIFICANT WEATHER AND/OR OBSTRUCTIONS TO VISIBILITY.

NOTE: STATIONS NOT REPORTING VARIABLES SUCH AS SKY/WEATHER OR
PRESSURE ARE PROVIDED BY RAWS AND APRS NETWORKS AND ARE NOT UNDER
NATIONAL WEATHER SERVICE QUALITY CONTROL.

...OBSERVATIONS IN AND NEAR THE EASTERN PANHANDLE OF NEBRASKA...

CITY           SKY/WX    TMP DP  RH WIND       PRES   REMARKS
PINE RIDGE     LGT RAIN  42  34  73 NE24G35   30.00S
CHADRON        LGT RAIN  44  35  70 NE29G43   30.03R
ALLIANCE       CLOUDY    34  32  92 N23       29.96R FOG     WCI  22
SIDNEY         SNOW      34  32  92 N20       29.93R VSB 1/2 WCI  23
CRESCENT LAKE    N/A     35  33  94 N17G24      N/A  WCI  25
BIG SPRINGS      N/A     37  35  92 N6          N/A  WCI  32
$$

...OBSERVATIONS IN NORTHERN NEBRASKA AND FAR SOUTHERN SOUTH DAKOTA...

CITY           SKY/WX    TMP DP  RH WIND       PRES   REMARKS
WINNER         LGT RAIN  45  39  79 NE16G31   29.96R
VALENTINE      RAIN      39  35  86 NE25G35   29.93R WCI  28
THEDFORD       CLOUDY    36  34  94 N18G24    29.88R WCI  25
AINSWORTH      LGT SNOW  34  33  97 N15G24    29.90S WCI  24
O`NEILL        CLOUDY    42  40  93 NE20      29.85S FOG
ORD            LGT RAIN  42  40  92 NE18      29.80R FOG
BROKEN BOW     LGT RAIN  39  37  92 N16       29.82R FOG     WCI  30
VALENTINE NWR    N/A     36  35  95 NE16G24     N/A  WCI  26
BUTTE            N/A     40  39  95 NE23G31     N/A  WCI  30
HALSEY           N/A     34  33  96 N9G16       N/A  WCI  27
CHAMBERS         N/A     43  42  95 N6G13       N/A
EWING            N/A     43  42  96 NE9G24      N/A
$$

...OBSERVATIONS IN SOUTHWEST NEBRASKA AND FAR NORTHEAST COLORADO...

CITY           SKY/WX    TMP DP  RH WIND       PRES   REMARKS
HOLYOKE        LGT SNOW  37  34  87 N17       29.90R WCI  28
IMPERIAL       LGT SNOW  34  32  92 N16       29.87R VSB 1   WCI  24
OGALLALA       LGT RAIN  35  33  90 N16       29.90R WCI  26
NORTH PLATTE   LGT SNOW  35  33  92 N20       29.84S FOG     WCI  24
MCCOOK         CLOUDY    42  36  79 N14       29.83R
LEXINGTON      CLOUDY    42  38  86 N17       29.81R
PAXTON           N/A     35  34  95 N15         N/A  WCI  25
STAPLETON        N/A     34  32  94 CALM        N/A
GOTHENBURG       N/A     37  33  86 N15         N/A  WCI  28
CALLAWAY         N/A     35  34  95 NE13        N/A  WCI  26
$$

...OBSERVATIONS IN CENTRAL LINCOLN COUNTY AREA...

CITY           SKY/WX    TMP DP  RH WIND       PRES   REMARKS
N.P. AIRPORT   LGT SNOW  35  33  92 N20       29.84S FOG     WCI  24
N.P. DOWNTOWN    N/A     35  33  94 N12G20      N/A  WCI  27
N.P. SOUTHEAST   N/A     35  33  93 N7G15       N/A  WCI  29
N.P. HILLCREST   N/A     35  34  96 NE20G26     N/A  WCI  24
$$

...SOME OBSERVATIONS FROM AROUND THE REGION...

CITY           SKY/WX    TMP DP  RH WIND       PRES   REMARKS
DENVER         LGT SNOW  34  32  92 N22       30.00R VSB 3/4 WCI  22
LARAMIE        LGT SNOW  30  26  85 N14       30.02R FOG     WCI  19
CHEYENNE       LGT SNOW  32  29  88 N24G31    30.00R VSB 3/4 WCI  19
SCOTTSBLUFF    LGT RAIN  38  37  97 N16G26    30.01R WCI  29
RAPID CITY     CLOUDY    48  36  63 N20       30.09R
BISMARCK       SUNNY     60  29  30 E23G32    30.19S
PIERRE         CLOUDY    53  35  50 NE26G32   30.01F
SIOUX FALLS    LGT RAIN  45  41  86 NE31G43   29.90S FOG
OMAHA          DRIZZLE   50  48  93 E5        29.76R FOG
GRAND ISLAND   LGT RAIN  45  43  93 N12       29.78R
KANSAS CITY    PTSUNNY   64  51  62 W14G23    29.73R
WICHITA        MOSUNNY   63  45  51 W14G23    29.78S
OKLAHOMA CITY  MOSUNNY   68  49  50 NW14G28   29.81S
DALLAS         PTSUNNY   74  59  59 NW10      29.77F
AMARILLO       CLOUDY    57  38  48 N12       29.89S
DODGE CITY     CLOUDY    51  38  60 W16G23    29.85R
HAYS           CLOUDY    52  36  54 NW16      29.81R
GOODLAND       CLOUDY    39  34  82 N20G26    29.85R WCI  29
$$




USA.gov is the U.S. government's official web portal to all federal, state and local government web resources and services.